Location: *
(38.3914°N, 75.0697°W)
Time: 15:41:54
(UTC+00:00)

STARLINK-1075 - Pass Details

Date: 17 February 2020
Orbit: 379 x 380 km, 53.0° (Epoch: 08 April)

Event Time Altitude Azimuth Distance (km) Brightness Sun altitude
Exits shadow 09:59:56 49° 93° (E) 500 3.7 -22.0°
Drops below altitude 10° 10:02:31 10° 56° (NE) 1,406 6.5 -21.5°
Enters shadow 10:58:43 -68° 232° (SW) 12,233 10.4 -10.5°
